GONETS-M 25 (54152 NORAD) Tracking and Keplerian Element Data

This shows tracking and keplerian element data for the satellite.

Feedback or suggestion? Click here.




ElementValue
Catalog54152
NameGONETS-M 25
Epoch Orbit366
Epoch Day325.24823808
Epoch Year2022
RAAN78.4945
Inclination82.5025
Eccentricity0.0014225
Argument of Perigee195.4467
Mean Anonmoly164.6198
Mean Motion12.43969057
Decay Rate1E-07
L11 54152U 22139C 22325.24823808 .00000010 00000+0 00000+0 0 9992
L22 54152 82.5025 78.4945 0014225 195.4467 164.6198 12.43969057 3664



Live tracking and technical data element details for GONETS-M 25 (NORAD 54152). GONETS-M 25 can be tracked NOW for your location showing map with azimuth and elevation plus other details from your city location.







IsCatalogInMostPopularTable: catalog: 54152, numindb: 23
Update: records affected: 1



GetName: 54152 GONETS-M 25

Hit Count: updated at: Sun, 04 Dec 2022 20:52:32 GMT